<?xml version="1.0" encoding="UTF-8" standalone="no" ?>
<gpx xmlns="http://www.topografix.com/GPX/1/1" creator="MapSource 6.11.6" version="1.1" xmlns:xsi="http://www.w3.org/2001/XMLSchema-instance" xsi:schemaLocation="http://www.topografix.com/GPX/1/1 http://www.topografix.com/GPX/1/1/gpx.xsd">

  <metadata>
    <link href="http://www.garmin.com">
      <text>Garmin International</text>
    </link>
    <time>2008-10-13T15:31:29Z</time>
    <bounds maxlat="50.221980" maxlon="6.829692" minlat="50.188380" minlon="6.664958"/>
  </metadata>

  <trk>
    <name>Etappe 10 Eifelsteig</name>
    <extensions>
      <gpxx:TrackExtension xmlns:gpxx="http://www.garmin.com/xmlschemas/GpxExtensions/v3" xmlns:xsi="http://www.w3.org/2001/XMLSchema-instance" xsi:schemaLocation="http://www.garmin.com/xmlschemas/GpxExtensions/v3 http://www.garmin.com/xmlschemas/GpxExtensions/v3/GpxExtensionsv3.xsd">
        <gpxx:DisplayColor>White</gpxx:DisplayColor>
      </gpxx:TrackExtension>
    </extensions>
    <trkseg>
      <trkpt lat="50.221980" lon="6.665840">
        <ele>377.000000</ele>
        <time>2008-01-28T09:10:10Z</time>
      </trkpt>
      <trkpt lat="50.221980" lon="6.665840">
        <time>2008-01-28T09:10:10Z</time>
      </trkpt>
      <trkpt lat="50.221924" lon="6.666106">
        <time>2008-01-28T09:10:10Z</time>
      </trkpt>
      <trkpt lat="50.221896" lon="6.666385">
        <time>2008-01-28T09:10:10Z</time>
      </trkpt>
      <trkpt lat="50.221896" lon="6.666385">
        <time>2008-01-28T09:10:10Z</time>
      </trkpt>
      <trkpt lat="50.221850" lon="6.666441">
        <time>2008-01-28T09:10:10Z</time>
      </trkpt>
      <trkpt lat="50.221760" lon="6.666454">
        <time>2008-01-28T09:10:10Z</time>
      </trkpt>
      <trkpt lat="50.221698" lon="6.666467">
        <time>2008-01-28T09:10:10Z</time>
      </trkpt>
      <trkpt lat="50.221616" lon="6.666494">
        <time>2008-01-28T09:10:10Z</time>
      </trkpt>
      <trkpt lat="50.221600" lon="6.666283">
        <time>2008-01-28T09:10:10Z</time>
      </trkpt>
      <trkpt lat="50.221519" lon="6.666282">
        <time>2008-01-28T09:10:10Z</time>
      </trkpt>
      <trkpt lat="50.221473" lon="6.666478">
        <time>2008-01-28T09:10:10Z</time>
      </trkpt>
      <trkpt lat="50.221411" lon="6.666295">
        <time>2008-01-28T09:10:10Z</time>
      </trkpt>
      <trkpt lat="50.221367" lon="6.666112">
        <time>2008-01-28T09:10:10Z</time>
      </trkpt>
      <trkpt lat="50.221396" lon="6.665748">
        <time>2008-01-28T09:10:10Z</time>
      </trkpt>
      <trkpt lat="50.221271" lon="6.665620">
        <time>2008-01-28T09:10:10Z</time>
      </trkpt>
      <trkpt lat="50.221216" lon="6.665717">
        <time>2008-01-28T09:10:10Z</time>
      </trkpt>
      <trkpt lat="50.221110" lon="6.665520">
        <ele>418.000000</ele>
        <time>2008-01-28T09:10:10Z</time>
      </trkpt>
      <trkpt lat="50.221110" lon="6.665520">
        <time>2008-01-28T09:10:10Z</time>
      </trkpt>
      <trkpt lat="50.221046" lon="6.665561">
        <time>2008-01-28T09:10:10Z</time>
      </trkpt>
      <trkpt lat="50.220821" lon="6.665698">
        <time>2008-01-28T09:10:10Z</time>
      </trkpt>
      <trkpt lat="50.220821" lon="6.665670">
        <ele>429.000000</ele>
        <time>2008-01-28T09:10:10Z</time>
      </trkpt>
      <trkpt lat="50.220821" lon="6.665670">
        <time>2008-01-28T09:10:10Z</time>
      </trkpt>
      <trkpt lat="50.220679" lon="6.665332">
        <time>2008-01-28T09:10:10Z</time>
      </trkpt>
      <trkpt lat="50.220581" lon="6.665120">
        <time>2008-01-28T09:10:10Z</time>
      </trkpt>
      <trkpt lat="50.220438" lon="6.664992">
        <time>2008-01-28T09:10:10Z</time>
      </trkpt>
      <trkpt lat="50.219989" lon="6.664958">
        <time>2008-01-28T09:10:10Z</time>
      </trkpt>
      <trkpt lat="50.219835" lon="6.665152">
        <ele>433.000000</ele>
        <time>2008-01-28T09:10:10Z</time>
      </trkpt>
      <trkpt lat="50.219835" lon="6.665152">
        <time>2008-01-28T09:10:10Z</time>
      </trkpt>
      <trkpt lat="50.219843" lon="6.665334">
        <time>2008-01-28T09:10:10Z</time>
      </trkpt>
      <trkpt lat="50.219878" lon="6.667100">
        <ele>416.000000</ele>
        <time>2008-01-28T09:10:10Z</time>
      </trkpt>
      <trkpt lat="50.219878" lon="6.667100">
        <time>2008-01-28T09:10:10Z</time>
      </trkpt>
      <trkpt lat="50.219132" lon="6.668533">
        <time>2008-01-28T09:10:10Z</time>
      </trkpt>
      <trkpt lat="50.218996" lon="6.668853">
        <ele>405.000000</ele>
        <time>2008-01-28T09:10:10Z</time>
      </trkpt>
      <trkpt lat="50.218996" lon="6.668853">
        <time>2008-01-28T09:10:10Z</time>
      </trkpt>
      <trkpt lat="50.218908" lon="6.670029">
        <time>2008-01-28T09:10:10Z</time>
      </trkpt>
      <trkpt lat="50.218682" lon="6.670152">
        <ele>422.000000</ele>
        <time>2008-01-28T09:10:10Z</time>
      </trkpt>
      <trkpt lat="50.218682" lon="6.670152">
        <time>2008-01-28T09:10:10Z</time>
      </trkpt>
      <trkpt lat="50.218700" lon="6.670236">
        <time>2008-01-28T09:10:10Z</time>
      </trkpt>
      <trkpt lat="50.218667" lon="6.671328">
        <time>2008-01-28T09:10:10Z</time>
      </trkpt>
      <trkpt lat="50.218738" lon="6.672969">
        <time>2008-01-28T09:10:10Z</time>
      </trkpt>
      <trkpt lat="50.218747" lon="6.676052">
        <time>2008-01-28T09:10:10Z</time>
      </trkpt>
      <trkpt lat="50.218743" lon="6.676822">
        <time>2008-01-28T09:10:10Z</time>
      </trkpt>
      <trkpt lat="50.218594" lon="6.677647">
        <ele>481.000000</ele>
        <time>2008-01-28T09:10:10Z</time>
      </trkpt>
      <trkpt lat="50.218594" lon="6.677647">
        <time>2008-01-28T09:10:10Z</time>
      </trkpt>
      <trkpt lat="50.218412" lon="6.677994">
        <time>2008-01-28T09:10:10Z</time>
      </trkpt>
      <trkpt lat="50.218324" lon="6.677643">
        <time>2008-01-28T09:10:10Z</time>
      </trkpt>
      <trkpt lat="50.218269" lon="6.677838">
        <time>2008-01-28T09:10:10Z</time>
      </trkpt>
      <trkpt lat="50.218189" lon="6.677711">
        <time>2008-01-28T09:10:10Z</time>
      </trkpt>
      <trkpt lat="50.218125" lon="6.677962">
        <time>2008-01-28T09:10:10Z</time>
      </trkpt>
      <trkpt lat="50.217919" lon="6.677735">
        <ele>498.000000</ele>
        <time>2008-01-28T09:10:10Z</time>
      </trkpt>
      <trkpt lat="50.217919" lon="6.677735">
        <time>2008-01-28T09:10:10Z</time>
      </trkpt>
      <trkpt lat="50.217772" lon="6.678420">
        <time>2008-01-28T09:10:10Z</time>
      </trkpt>
      <trkpt lat="50.217196" lon="6.678412">
        <time>2008-01-28T09:10:10Z</time>
      </trkpt>
      <trkpt lat="50.217045" lon="6.678143">
        <ele>474.000000</ele>
        <time>2008-01-28T09:10:10Z</time>
      </trkpt>
      <trkpt lat="50.217045" lon="6.678143">
        <time>2008-01-28T09:10:10Z</time>
      </trkpt>
      <trkpt lat="50.216898" lon="6.678674">
        <time>2008-01-28T09:10:10Z</time>
      </trkpt>
      <trkpt lat="50.216114" lon="6.679027">
        <time>2008-01-28T09:10:10Z</time>
      </trkpt>
      <trkpt lat="50.215825" lon="6.679219">
        <ele>467.000000</ele>
        <time>2008-01-28T09:10:10Z</time>
      </trkpt>
      <trkpt lat="50.215825" lon="6.679219">
        <time>2008-01-28T09:10:10Z</time>
      </trkpt>
      <trkpt lat="50.215483" lon="6.679242">
        <time>2008-01-28T09:10:10Z</time>
      </trkpt>
      <trkpt lat="50.214861" lon="6.679513">
        <time>2008-01-28T09:10:10Z</time>
      </trkpt>
      <trkpt lat="50.214014" lon="6.679880">
        <ele>488.000000</ele>
        <time>2008-01-28T09:10:10Z</time>
      </trkpt>
      <trkpt lat="50.214014" lon="6.679880">
        <time>2008-01-28T09:10:10Z</time>
      </trkpt>
      <trkpt lat="50.213747" lon="6.679413">
        <time>2008-01-28T09:10:10Z</time>
      </trkpt>
      <trkpt lat="50.213364" lon="6.678861">
        <time>2008-01-28T09:10:10Z</time>
      </trkpt>
      <trkpt lat="50.212906" lon="6.678785">
        <time>2008-01-28T09:10:10Z</time>
      </trkpt>
      <trkpt lat="50.212162" lon="6.678452">
        <time>2008-01-28T09:10:10Z</time>
      </trkpt>
      <trkpt lat="50.211518" lon="6.677827">
        <time>2008-01-28T09:10:10Z</time>
      </trkpt>
      <trkpt lat="50.211313" lon="6.677446">
        <time>2008-01-28T09:10:10Z</time>
      </trkpt>
      <trkpt lat="50.211189" lon="6.677220">
        <ele>505.000000</ele>
        <time>2008-01-28T09:10:10Z</time>
      </trkpt>
      <trkpt lat="50.211189" lon="6.677220">
        <time>2008-01-28T09:10:10Z</time>
      </trkpt>
      <trkpt lat="50.211020" lon="6.676839">
        <time>2008-01-28T09:10:10Z</time>
      </trkpt>
      <trkpt lat="50.210710" lon="6.676036">
        <time>2008-01-28T09:10:10Z</time>
      </trkpt>
      <trkpt lat="50.210415" lon="6.675710">
        <time>2008-01-28T09:10:10Z</time>
      </trkpt>
      <trkpt lat="50.209930" lon="6.675647">
        <time>2008-01-28T09:10:10Z</time>
      </trkpt>
      <trkpt lat="50.209840" lon="6.675645">
        <time>2008-01-28T09:10:10Z</time>
      </trkpt>
      <trkpt lat="50.209552" lon="6.675824">
        <ele>486.000000</ele>
        <time>2008-01-28T09:10:10Z</time>
      </trkpt>
      <trkpt lat="50.209552" lon="6.675824">
        <time>2008-01-28T09:10:10Z</time>
      </trkpt>
      <trkpt lat="50.209253" lon="6.676071">
        <time>2008-01-28T09:10:10Z</time>
      </trkpt>
      <trkpt lat="50.208928" lon="6.676333">
        <time>2008-01-28T09:10:10Z</time>
      </trkpt>
      <trkpt lat="50.208612" lon="6.676595">
        <time>2008-01-28T09:10:10Z</time>
      </trkpt>
      <trkpt lat="50.208332" lon="6.676913">
        <time>2008-01-28T09:10:10Z</time>
      </trkpt>
      <trkpt lat="50.207725" lon="6.677563">
        <time>2008-01-28T09:10:10Z</time>
      </trkpt>
      <trkpt lat="50.207577" lon="6.676902">
        <time>2008-01-28T09:10:10Z</time>
      </trkpt>
      <trkpt lat="50.207696" lon="6.676470">
        <time>2008-01-28T09:10:10Z</time>
      </trkpt>
      <trkpt lat="50.207917" lon="6.675618">
        <time>2008-01-28T09:10:10Z</time>
      </trkpt>
      <trkpt lat="50.207919" lon="6.675198">
        <time>2008-01-28T09:10:10Z</time>
      </trkpt>
      <trkpt lat="50.207743" lon="6.674481">
        <time>2008-01-28T09:10:10Z</time>
      </trkpt>
      <trkpt lat="50.207469" lon="6.673707">
        <time>2008-01-28T09:10:10Z</time>
      </trkpt>
      <trkpt lat="50.207229" lon="6.673367">
        <time>2008-01-28T09:10:10Z</time>
      </trkpt>
      <trkpt lat="50.207077" lon="6.673183">
        <time>2008-01-28T09:10:10Z</time>
      </trkpt>
      <trkpt lat="50.207033" lon="6.672986">
        <ele>495.000000</ele>
        <time>2008-01-28T09:10:10Z</time>
      </trkpt>
      <trkpt lat="50.207033" lon="6.672986">
        <time>2008-01-28T09:10:10Z</time>
      </trkpt>
      <trkpt lat="50.206777" lon="6.672128">
        <time>2008-01-28T09:10:10Z</time>
      </trkpt>
      <trkpt lat="50.206621" lon="6.671160">
        <time>2008-01-28T09:10:10Z</time>
      </trkpt>
      <trkpt lat="50.206410" lon="6.670358">
        <time>2008-01-28T09:10:10Z</time>
      </trkpt>
      <trkpt lat="50.205999" lon="6.669890">
        <time>2008-01-28T09:10:10Z</time>
      </trkpt>
      <trkpt lat="50.205596" lon="6.669590">
        <time>2008-01-28T09:10:10Z</time>
      </trkpt>
      <trkpt lat="50.205238" lon="6.669305">
        <time>2008-01-28T09:10:10Z</time>
      </trkpt>
      <trkpt lat="50.204747" lon="6.668682">
        <time>2008-01-28T09:10:10Z</time>
      </trkpt>
      <trkpt lat="50.204390" lon="6.668243">
        <time>2008-01-28T09:10:10Z</time>
      </trkpt>
      <trkpt lat="50.204202" lon="6.668156">
        <time>2008-01-28T09:10:10Z</time>
      </trkpt>
      <trkpt lat="50.203923" lon="6.668208">
        <ele>528.000000</ele>
        <time>2008-01-28T09:10:10Z</time>
      </trkpt>
      <trkpt lat="50.203923" lon="6.668208">
        <time>2008-01-28T09:10:10Z</time>
      </trkpt>
      <trkpt lat="50.204037" lon="6.668770">
        <time>2008-01-28T09:10:10Z</time>
      </trkpt>
      <trkpt lat="50.204229" lon="6.669711">
        <time>2008-01-28T09:10:10Z</time>
      </trkpt>
      <trkpt lat="50.204343" lon="6.670175">
        <time>2008-01-28T09:10:10Z</time>
      </trkpt>
      <trkpt lat="50.204492" lon="6.670906">
        <ele>559.000000</ele>
        <time>2008-01-28T09:10:10Z</time>
      </trkpt>
      <trkpt lat="50.204492" lon="6.670906">
        <time>2008-01-28T09:10:10Z</time>
      </trkpt>
      <trkpt lat="50.204491" lon="6.671060">
        <time>2008-01-28T09:10:10Z</time>
      </trkpt>
      <trkpt lat="50.204163" lon="6.671825">
        <time>2008-01-28T09:10:10Z</time>
      </trkpt>
      <trkpt lat="50.203998" lon="6.672355">
        <time>2008-01-28T09:10:10Z</time>
      </trkpt>
      <trkpt lat="50.203931" lon="6.673083">
        <time>2008-01-28T09:10:10Z</time>
      </trkpt>
      <trkpt lat="50.203856" lon="6.673516">
        <time>2008-01-28T09:10:10Z</time>
      </trkpt>
      <trkpt lat="50.203835" lon="6.674048">
        <time>2008-01-28T09:10:10Z</time>
      </trkpt>
      <trkpt lat="50.204150" lon="6.674108">
        <time>2008-01-28T09:10:10Z</time>
      </trkpt>
      <trkpt lat="50.204391" lon="6.674252">
        <ele>583.000000</ele>
        <time>2008-01-28T09:10:10Z</time>
      </trkpt>
      <trkpt lat="50.204391" lon="6.674252">
        <time>2008-01-28T09:10:10Z</time>
      </trkpt>
      <trkpt lat="50.204263" lon="6.674600">
        <time>2008-01-28T09:10:10Z</time>
      </trkpt>
      <trkpt lat="50.204110" lon="6.674766">
        <time>2008-01-28T09:10:10Z</time>
      </trkpt>
      <trkpt lat="50.203700" lon="6.675615">
        <time>2008-01-28T09:10:10Z</time>
      </trkpt>
      <trkpt lat="50.203301" lon="6.676226">
        <time>2008-01-28T09:10:10Z</time>
      </trkpt>
      <trkpt lat="50.203028" lon="6.676880">
        <time>2008-01-28T09:10:10Z</time>
      </trkpt>
      <trkpt lat="50.202900" lon="6.677116">
        <time>2008-01-28T09:10:10Z</time>
      </trkpt>
      <trkpt lat="50.202988" lon="6.677510">
        <ele>596.000000</ele>
        <time>2008-01-28T09:10:10Z</time>
      </trkpt>
      <trkpt lat="50.202988" lon="6.677510">
        <time>2008-01-28T09:10:10Z</time>
      </trkpt>
      <trkpt lat="50.202591" lon="6.677756">
        <time>2008-01-28T09:10:10Z</time>
      </trkpt>
      <trkpt lat="50.202454" lon="6.678063">
        <time>2008-01-28T09:10:10Z</time>
      </trkpt>
      <trkpt lat="50.202282" lon="6.678256">
        <time>2008-01-28T09:10:10Z</time>
      </trkpt>
      <trkpt lat="50.202002" lon="6.678588">
        <time>2008-01-28T09:10:10Z</time>
      </trkpt>
      <trkpt lat="50.201874" lon="6.678909">
        <ele>606.000000</ele>
        <time>2008-01-28T09:10:10Z</time>
      </trkpt>
      <trkpt lat="50.201874" lon="6.678909">
        <time>2008-01-28T09:10:10Z</time>
      </trkpt>
      <trkpt lat="50.202142" lon="6.679137">
        <ele>611.000000</ele>
        <time>2008-01-28T09:10:10Z</time>
      </trkpt>
      <trkpt lat="50.202142" lon="6.679137">
        <time>2008-01-28T09:10:10Z</time>
      </trkpt>
      <trkpt lat="50.202284" lon="6.679475">
        <time>2008-01-28T09:10:10Z</time>
      </trkpt>
      <trkpt lat="50.202363" lon="6.679770">
        <time>2008-01-28T09:10:10Z</time>
      </trkpt>
      <trkpt lat="50.202298" lon="6.680175">
        <time>2008-01-28T09:10:10Z</time>
      </trkpt>
      <trkpt lat="50.202451" lon="6.680178">
        <time>2008-01-28T09:10:10Z</time>
      </trkpt>
      <trkpt lat="50.202576" lon="6.680249">
        <ele>592.000000</ele>
        <time>2008-01-28T09:10:10Z</time>
      </trkpt>
      <trkpt lat="50.202576" lon="6.680249">
        <time>2008-01-28T09:10:10Z</time>
      </trkpt>
      <trkpt lat="50.203355" lon="6.680765">
        <ele>580.000000</ele>
        <time>2008-01-28T09:10:10Z</time>
      </trkpt>
      <trkpt lat="50.203355" lon="6.680765">
        <time>2008-01-28T09:10:10Z</time>
      </trkpt>
      <trkpt lat="50.204478" lon="6.681005">
        <time>2008-01-28T09:10:10Z</time>
      </trkpt>
      <trkpt lat="50.206283" lon="6.681367">
        <ele>562.000000</ele>
        <time>2008-01-28T09:10:10Z</time>
      </trkpt>
      <trkpt lat="50.206283" lon="6.681367">
        <time>2008-01-28T09:10:10Z</time>
      </trkpt>
      <trkpt lat="50.206569" lon="6.681665">
        <time>2008-01-28T09:10:10Z</time>
      </trkpt>
      <trkpt lat="50.207184" lon="6.682556">
        <time>2008-01-28T09:10:10Z</time>
      </trkpt>
      <trkpt lat="50.207192" lon="6.682654">
        <ele>538.000000</ele>
        <time>2008-01-28T09:10:10Z</time>
      </trkpt>
      <trkpt lat="50.207192" lon="6.682654">
        <time>2008-01-28T09:10:10Z</time>
      </trkpt>
      <trkpt lat="50.207422" lon="6.683400">
        <time>2008-01-28T09:10:10Z</time>
      </trkpt>
      <trkpt lat="50.208200" lon="6.684055">
        <ele>559.000000</ele>
        <time>2008-01-28T09:10:10Z</time>
      </trkpt>
      <trkpt lat="50.208200" lon="6.684055">
        <time>2008-01-28T09:10:10Z</time>
      </trkpt>
      <trkpt lat="50.208252" lon="6.684392">
        <time>2008-01-28T09:10:10Z</time>
      </trkpt>
      <trkpt lat="50.207752" lon="6.685282">
        <ele>535.000000</ele>
        <time>2008-01-28T09:10:10Z</time>
      </trkpt>
      <trkpt lat="50.207752" lon="6.685282">
        <time>2008-01-28T09:10:10Z</time>
      </trkpt>
      <trkpt lat="50.206923" lon="6.684163">
        <time>2008-01-28T09:10:10Z</time>
      </trkpt>
      <trkpt lat="50.206313" lon="6.683874">
        <time>2008-01-28T09:10:10Z</time>
      </trkpt>
      <trkpt lat="50.205567" lon="6.683850">
        <time>2008-01-28T09:10:10Z</time>
      </trkpt>
      <trkpt lat="50.204685" lon="6.684033">
        <time>2008-01-28T09:10:10Z</time>
      </trkpt>
      <trkpt lat="50.204091" lon="6.684179">
        <time>2008-01-28T09:10:10Z</time>
      </trkpt>
      <trkpt lat="50.204091" lon="6.684179">
        <time>2008-01-28T09:10:10Z</time>
      </trkpt>
      <trkpt lat="50.204043" lon="6.684612">
        <time>2008-01-28T09:10:10Z</time>
      </trkpt>
      <trkpt lat="50.203870" lon="6.684974">
        <time>2008-01-28T09:10:10Z</time>
      </trkpt>
      <trkpt lat="50.203573" lon="6.685124">
        <time>2008-01-28T09:10:10Z</time>
      </trkpt>
      <trkpt lat="50.203292" lon="6.685512">
        <time>2008-01-28T09:10:10Z</time>
      </trkpt>
      <trkpt lat="50.202875" lon="6.686066">
        <time>2008-01-28T09:10:10Z</time>
      </trkpt>
      <trkpt lat="50.202684" lon="6.686358">
        <time>2008-01-28T09:10:10Z</time>
      </trkpt>
      <trkpt lat="50.202456" lon="6.687027">
        <ele>538.000000</ele>
        <time>2008-01-28T09:10:10Z</time>
      </trkpt>
      <trkpt lat="50.202456" lon="6.687027">
        <time>2008-01-28T09:10:10Z</time>
      </trkpt>
      <trkpt lat="50.202880" lon="6.688153">
        <time>2008-01-28T09:10:10Z</time>
      </trkpt>
      <trkpt lat="50.203469" lon="6.689002">
        <time>2008-01-28T09:10:10Z</time>
      </trkpt>
      <trkpt lat="50.204081" lon="6.690356">
        <time>2008-01-28T09:10:10Z</time>
      </trkpt>
      <trkpt lat="50.204126" lon="6.690441">
        <time>2008-01-28T09:10:10Z</time>
      </trkpt>
      <trkpt lat="50.204126" lon="6.690441">
        <time>2008-01-28T09:10:10Z</time>
      </trkpt>
      <trkpt lat="50.204641" lon="6.691415">
        <time>2008-01-28T09:10:10Z</time>
      </trkpt>
      <trkpt lat="50.204881" lon="6.691838">
        <time>2008-01-28T09:10:10Z</time>
      </trkpt>
      <trkpt lat="50.205038" lon="6.692639">
        <time>2008-01-28T09:10:10Z</time>
      </trkpt>
      <trkpt lat="50.205197" lon="6.693131">
        <ele>546.000000</ele>
        <time>2008-01-28T09:10:10Z</time>
      </trkpt>
      <trkpt lat="50.205197" lon="6.693131">
        <time>2008-01-28T09:10:10Z</time>
      </trkpt>
      <trkpt lat="50.205689" lon="6.693587">
        <time>2008-01-28T09:10:10Z</time>
      </trkpt>
      <trkpt lat="50.206181" lon="6.694028">
        <time>2008-01-28T09:10:10Z</time>
      </trkpt>
      <trkpt lat="50.206611" lon="6.694329">
        <ele>546.000000</ele>
        <time>2008-01-28T09:10:10Z</time>
      </trkpt>
      <trkpt lat="50.206611" lon="6.694329">
        <time>2008-01-28T09:10:10Z</time>
      </trkpt>
      <trkpt lat="50.206646" lon="6.694483">
        <time>2008-01-28T09:10:10Z</time>
      </trkpt>
      <trkpt lat="50.206635" lon="6.694749">
        <time>2008-01-28T09:10:10Z</time>
      </trkpt>
      <trkpt lat="50.206571" lon="6.694930">
        <time>2008-01-28T09:10:10Z</time>
      </trkpt>
      <trkpt lat="50.206571" lon="6.694930">
        <time>2008-01-28T09:10:10Z</time>
      </trkpt>
      <trkpt lat="50.206388" lon="6.695530">
        <time>2008-01-28T09:10:10Z</time>
      </trkpt>
      <trkpt lat="50.206204" lon="6.696116">
        <time>2008-01-28T09:10:10Z</time>
      </trkpt>
      <trkpt lat="50.206139" lon="6.696577">
        <time>2008-01-28T09:10:10Z</time>
      </trkpt>
      <trkpt lat="50.206278" lon="6.697336">
        <time>2008-01-28T09:10:10Z</time>
      </trkpt>
      <trkpt lat="50.206312" lon="6.697742">
        <time>2008-01-28T09:10:10Z</time>
      </trkpt>
      <trkpt lat="50.206255" lon="6.698162">
        <time>2008-01-28T09:10:10Z</time>
      </trkpt>
      <trkpt lat="50.205848" lon="6.700047">
        <time>2008-01-28T09:10:10Z</time>
      </trkpt>
      <trkpt lat="50.205784" lon="6.700270">
        <time>2008-01-28T09:10:10Z</time>
      </trkpt>
      <trkpt lat="50.205774" lon="6.700396">
        <ele>546.000000</ele>
        <time>2008-01-28T09:10:10Z</time>
      </trkpt>
      <trkpt lat="50.205774" lon="6.700396">
        <time>2008-01-28T09:10:10Z</time>
      </trkpt>
      <trkpt lat="50.205764" lon="6.700550">
        <time>2008-01-28T09:10:10Z</time>
      </trkpt>
      <trkpt lat="50.205707" lon="6.701039">
        <time>2008-01-28T09:10:10Z</time>
      </trkpt>
      <trkpt lat="50.205641" lon="6.701613">
        <time>2008-01-28T09:10:10Z</time>
      </trkpt>
      <trkpt lat="50.205557" lon="6.702046">
        <time>2008-01-28T09:10:10Z</time>
      </trkpt>
      <trkpt lat="50.205482" lon="6.702647">
        <time>2008-01-28T09:10:10Z</time>
      </trkpt>
      <trkpt lat="50.205363" lon="6.702995">
        <time>2008-01-28T09:10:10Z</time>
      </trkpt>
      <trkpt lat="50.205099" lon="6.703468">
        <time>2008-01-28T09:10:10Z</time>
      </trkpt>
      <trkpt lat="50.204816" lon="6.704206">
        <time>2008-01-28T09:10:10Z</time>
      </trkpt>
      <trkpt lat="50.204786" lon="6.704668">
        <time>2008-01-28T09:10:10Z</time>
      </trkpt>
      <trkpt lat="50.204658" lon="6.705128">
        <time>2008-01-28T09:10:10Z</time>
      </trkpt>
      <trkpt lat="50.204375" lon="6.705796">
        <time>2008-01-28T09:10:10Z</time>
      </trkpt>
      <trkpt lat="50.203964" lon="6.706771">
        <time>2008-01-28T09:10:10Z</time>
      </trkpt>
      <trkpt lat="50.203881" lon="6.707218">
        <time>2008-01-28T09:10:10Z</time>
      </trkpt>
      <trkpt lat="50.203531" lon="6.708599">
        <time>2008-01-28T09:10:10Z</time>
      </trkpt>
      <trkpt lat="50.203295" lon="6.708988">
        <time>2008-01-28T09:10:10Z</time>
      </trkpt>
      <trkpt lat="50.202546" lon="6.709341">
        <time>2008-01-28T09:10:10Z</time>
      </trkpt>
      <trkpt lat="50.202113" lon="6.709657">
        <time>2008-01-28T09:10:10Z</time>
      </trkpt>
      <trkpt lat="50.201859" lon="6.709919">
        <time>2008-01-28T09:10:10Z</time>
      </trkpt>
      <trkpt lat="50.201859" lon="6.709919">
        <time>2008-01-28T09:10:10Z</time>
      </trkpt>
      <trkpt lat="50.200992" lon="6.710719">
        <time>2008-01-28T09:10:10Z</time>
      </trkpt>
      <trkpt lat="50.200096" lon="6.711630">
        <time>2008-01-28T09:10:10Z</time>
      </trkpt>
      <trkpt lat="50.199498" lon="6.712321">
        <ele>573.000000</ele>
        <time>2008-01-28T09:10:10Z</time>
      </trkpt>
      <trkpt lat="50.199498" lon="6.712321">
        <time>2008-01-28T09:10:10Z</time>
      </trkpt>
      <trkpt lat="50.199399" lon="6.712376">
        <time>2008-01-28T09:10:10Z</time>
      </trkpt>
      <trkpt lat="50.198845" lon="6.713362">
        <time>2008-01-28T09:10:10Z</time>
      </trkpt>
      <trkpt lat="50.198509" lon="6.713833">
        <time>2008-01-28T09:10:10Z</time>
      </trkpt>
      <trkpt lat="50.198496" lon="6.714561">
        <time>2008-01-28T09:10:10Z</time>
      </trkpt>
      <trkpt lat="50.198512" lon="6.714870">
        <ele>579.000000</ele>
        <time>2008-01-28T09:10:10Z</time>
      </trkpt>
      <trkpt lat="50.198512" lon="6.714870">
        <time>2008-01-28T09:10:10Z</time>
      </trkpt>
      <trkpt lat="50.198537" lon="6.715164">
        <time>2008-01-28T09:10:10Z</time>
      </trkpt>
      <trkpt lat="50.198373" lon="6.715526">
        <time>2008-01-28T09:10:10Z</time>
      </trkpt>
      <trkpt lat="50.197761" lon="6.715657">
        <time>2008-01-28T09:10:10Z</time>
      </trkpt>
      <trkpt lat="50.197258" lon="6.715467">
        <time>2008-01-28T09:10:10Z</time>
      </trkpt>
      <trkpt lat="50.196376" lon="6.715636">
        <time>2008-01-28T09:10:10Z</time>
      </trkpt>
      <trkpt lat="50.194930" lon="6.715502">
        <time>2008-01-28T09:10:10Z</time>
      </trkpt>
      <trkpt lat="50.194220" lon="6.715394">
        <time>2008-01-28T09:10:10Z</time>
      </trkpt>
      <trkpt lat="50.193834" lon="6.715332">
        <time>2008-01-28T09:10:10Z</time>
      </trkpt>
      <trkpt lat="50.193457" lon="6.715298">
        <ele>598.000000</ele>
        <time>2008-01-28T09:10:10Z</time>
      </trkpt>
      <trkpt lat="50.193457" lon="6.715298">
        <time>2008-01-28T09:10:10Z</time>
      </trkpt>
      <trkpt lat="50.193291" lon="6.715954">
        <time>2008-01-28T09:10:10Z</time>
      </trkpt>
      <trkpt lat="50.193351" lon="6.716431">
        <time>2008-01-28T09:10:10Z</time>
      </trkpt>
      <trkpt lat="50.193230" lon="6.717115">
        <time>2008-01-28T09:10:10Z</time>
      </trkpt>
      <trkpt lat="50.193342" lon="6.717901">
        <time>2008-01-28T09:10:10Z</time>
      </trkpt>
      <trkpt lat="50.193338" lon="6.718447">
        <time>2008-01-28T09:10:10Z</time>
      </trkpt>
      <trkpt lat="50.193338" lon="6.718447">
        <time>2008-01-28T09:10:10Z</time>
      </trkpt>
      <trkpt lat="50.193283" lon="6.718741">
        <time>2008-01-28T09:10:10Z</time>
      </trkpt>
      <trkpt lat="50.193416" lon="6.720451">
        <time>2008-01-28T09:10:10Z</time>
      </trkpt>
      <trkpt lat="50.193381" lon="6.721725">
        <time>2008-01-28T09:10:10Z</time>
      </trkpt>
      <trkpt lat="50.193097" lon="6.722477">
        <time>2008-01-28T09:10:10Z</time>
      </trkpt>
      <trkpt lat="50.192165" lon="6.723485">
        <time>2008-01-28T09:10:10Z</time>
      </trkpt>
      <trkpt lat="50.191633" lon="6.723799">
        <time>2008-01-28T09:10:10Z</time>
      </trkpt>
      <trkpt lat="50.191342" lon="6.724285">
        <time>2008-01-28T09:10:10Z</time>
      </trkpt>
      <trkpt lat="50.191040" lon="6.725135">
        <ele>527.000000</ele>
        <time>2008-01-28T09:10:10Z</time>
      </trkpt>
      <trkpt lat="50.191040" lon="6.725135">
        <time>2008-01-28T09:10:10Z</time>
      </trkpt>
      <trkpt lat="50.190518" lon="6.725267">
        <time>2008-01-28T09:10:10Z</time>
      </trkpt>
      <trkpt lat="50.190518" lon="6.725267">
        <time>2008-01-28T09:10:10Z</time>
      </trkpt>
      <trkpt lat="50.190589" lon="6.726836">
        <time>2008-01-28T09:10:10Z</time>
      </trkpt>
      <trkpt lat="50.190589" lon="6.726836">
        <time>2008-01-28T09:10:10Z</time>
      </trkpt>
      <trkpt lat="50.190990" lon="6.727458">
        <time>2008-01-28T09:10:10Z</time>
      </trkpt>
      <trkpt lat="50.191305" lon="6.728751">
        <time>2008-01-28T09:10:10Z</time>
      </trkpt>
      <trkpt lat="50.191305" lon="6.728751">
        <time>2008-01-28T09:10:10Z</time>
      </trkpt>
      <trkpt lat="50.191601" lon="6.728938">
        <time>2008-01-28T09:10:10Z</time>
      </trkpt>
      <trkpt lat="50.191862" lon="6.730202">
        <time>2008-01-28T09:10:10Z</time>
      </trkpt>
      <trkpt lat="50.191958" lon="6.730778">
        <time>2008-01-28T09:10:10Z</time>
      </trkpt>
      <trkpt lat="50.191958" lon="6.730778">
        <time>2008-01-28T09:10:10Z</time>
      </trkpt>
      <trkpt lat="50.192068" lon="6.731872">
        <time>2008-01-28T09:10:10Z</time>
      </trkpt>
      <trkpt lat="50.192160" lon="6.732938">
        <time>2008-01-28T09:10:10Z</time>
      </trkpt>
      <trkpt lat="50.192306" lon="6.734074">
        <time>2008-01-28T09:10:10Z</time>
      </trkpt>
      <trkpt lat="50.192319" lon="6.734733">
        <ele>507.000000</ele>
        <time>2008-01-28T09:10:10Z</time>
      </trkpt>
      <trkpt lat="50.192319" lon="6.734733">
        <time>2008-01-28T09:10:10Z</time>
      </trkpt>
      <trkpt lat="50.192237" lon="6.734913">
        <time>2008-01-28T09:10:10Z</time>
      </trkpt>
      <trkpt lat="50.192292" lon="6.736203">
        <time>2008-01-28T09:10:10Z</time>
      </trkpt>
      <trkpt lat="50.192355" lon="6.736231">
        <ele>499.000000</ele>
        <time>2008-01-28T09:10:10Z</time>
      </trkpt>
      <trkpt lat="50.192355" lon="6.736231">
        <time>2008-01-28T09:10:10Z</time>
      </trkpt>
      <trkpt lat="50.191881" lon="6.735818">
        <time>2008-01-28T09:10:10Z</time>
      </trkpt>
      <trkpt lat="50.191480" lon="6.735266">
        <time>2008-01-28T09:10:10Z</time>
      </trkpt>
      <trkpt lat="50.191176" lon="6.734967">
        <time>2008-01-28T09:10:10Z</time>
      </trkpt>
      <trkpt lat="50.190918" lon="6.734613">
        <time>2008-01-28T09:10:10Z</time>
      </trkpt>
      <trkpt lat="50.190222" lon="6.733776">
        <time>2008-01-28T09:10:10Z</time>
      </trkpt>
      <trkpt lat="50.189348" lon="6.732685">
        <time>2008-01-28T09:10:10Z</time>
      </trkpt>
      <trkpt lat="50.189392" lon="6.732811">
        <ele>516.000000</ele>
        <time>2008-01-28T09:10:10Z</time>
      </trkpt>
      <trkpt lat="50.189392" lon="6.732811">
        <time>2008-01-28T09:10:10Z</time>
      </trkpt>
      <trkpt lat="50.189112" lon="6.732975">
        <time>2008-01-28T09:10:10Z</time>
      </trkpt>
      <trkpt lat="50.188948" lon="6.733323">
        <time>2008-01-28T09:10:10Z</time>
      </trkpt>
      <trkpt lat="50.189144" lon="6.733634">
        <time>2008-01-28T09:10:10Z</time>
      </trkpt>
      <trkpt lat="50.189214" lon="6.733901">
        <time>2008-01-28T09:10:10Z</time>
      </trkpt>
      <trkpt lat="50.189214" lon="6.733901">
        <time>2008-01-28T09:10:10Z</time>
      </trkpt>
      <trkpt lat="50.189865" lon="6.734807">
        <time>2008-01-28T09:10:10Z</time>
      </trkpt>
      <trkpt lat="50.190566" lon="6.736134">
        <time>2008-01-28T09:10:10Z</time>
      </trkpt>
      <trkpt lat="50.191028" lon="6.737023">
        <time>2008-01-28T09:10:10Z</time>
      </trkpt>
      <trkpt lat="50.191241" lon="6.737517">
        <time>2008-01-28T09:10:10Z</time>
      </trkpt>
      <trkpt lat="50.191615" lon="6.738013">
        <time>2008-01-28T09:10:10Z</time>
      </trkpt>
      <trkpt lat="50.191705" lon="6.739484">
        <time>2008-01-28T09:10:10Z</time>
      </trkpt>
      <trkpt lat="50.191736" lon="6.740185">
        <ele>516.000000</ele>
        <time>2008-01-28T09:10:10Z</time>
      </trkpt>
      <trkpt lat="50.191736" lon="6.740185">
        <time>2008-01-28T09:10:10Z</time>
      </trkpt>
      <trkpt lat="50.191800" lon="6.740144">
        <time>2008-01-28T09:10:10Z</time>
      </trkpt>
      <trkpt lat="50.191732" lon="6.740927">
        <time>2008-01-28T09:10:10Z</time>
      </trkpt>
      <trkpt lat="50.191341" lon="6.741607">
        <time>2008-01-28T09:10:10Z</time>
      </trkpt>
      <trkpt lat="50.190951" lon="6.742049">
        <time>2008-01-28T09:10:10Z</time>
      </trkpt>
      <trkpt lat="50.190859" lon="6.742468">
        <time>2008-01-28T09:10:10Z</time>
      </trkpt>
      <trkpt lat="50.190793" lon="6.742887">
        <ele>529.000000</ele>
        <time>2008-01-28T09:10:10Z</time>
      </trkpt>
      <trkpt lat="50.190793" lon="6.742887">
        <time>2008-01-28T09:10:10Z</time>
      </trkpt>
      <trkpt lat="50.190585" lon="6.743164">
        <time>2008-01-28T09:10:10Z</time>
      </trkpt>
      <trkpt lat="50.190341" lon="6.743328">
        <time>2008-01-28T09:10:10Z</time>
      </trkpt>
      <trkpt lat="50.189846" lon="6.743349">
        <time>2008-01-28T09:10:10Z</time>
      </trkpt>
      <trkpt lat="50.189299" lon="6.743116">
        <time>2008-01-28T09:10:10Z</time>
      </trkpt>
      <trkpt lat="50.188968" lon="6.742901">
        <ele>543.000000</ele>
        <time>2008-01-28T09:10:10Z</time>
      </trkpt>
      <trkpt lat="50.188968" lon="6.742901">
        <time>2008-01-28T09:10:10Z</time>
      </trkpt>
      <trkpt lat="50.189078" lon="6.744009">
        <time>2008-01-28T09:10:10Z</time>
      </trkpt>
      <trkpt lat="50.189224" lon="6.744991">
        <time>2008-01-28T09:10:10Z</time>
      </trkpt>
      <trkpt lat="50.189407" lon="6.745932">
        <time>2008-01-28T09:10:10Z</time>
      </trkpt>
      <trkpt lat="50.189573" lon="6.746719">
        <time>2008-01-28T09:10:10Z</time>
      </trkpt>
      <trkpt lat="50.189677" lon="6.747295">
        <ele>500.000000</ele>
        <time>2008-01-28T09:10:10Z</time>
      </trkpt>
      <trkpt lat="50.189677" lon="6.747295">
        <time>2008-01-28T09:10:10Z</time>
      </trkpt>
      <trkpt lat="50.189685" lon="6.747407">
        <time>2008-01-28T09:10:10Z</time>
      </trkpt>
      <trkpt lat="50.190666" lon="6.747268">
        <time>2008-01-28T09:10:10Z</time>
      </trkpt>
      <trkpt lat="50.190882" lon="6.747300">
        <time>2008-01-28T09:10:10Z</time>
      </trkpt>
      <trkpt lat="50.190680" lon="6.747871">
        <ele>481.000000</ele>
        <time>2008-01-28T09:10:10Z</time>
      </trkpt>
      <trkpt lat="50.190680" lon="6.747871">
        <time>2008-01-28T09:10:10Z</time>
      </trkpt>
      <trkpt lat="50.190553" lon="6.748023">
        <time>2008-01-28T09:10:10Z</time>
      </trkpt>
      <trkpt lat="50.191068" lon="6.747723">
        <time>2008-01-28T09:10:10Z</time>
      </trkpt>
      <trkpt lat="50.190757" lon="6.748446">
        <time>2008-01-28T09:10:10Z</time>
      </trkpt>
      <trkpt lat="50.190888" lon="6.749190">
        <time>2008-01-28T09:10:10Z</time>
      </trkpt>
      <trkpt lat="50.191064" lon="6.749669">
        <ele>462.000000</ele>
        <time>2008-01-28T09:10:10Z</time>
      </trkpt>
      <trkpt lat="50.191064" lon="6.749669">
        <time>2008-01-28T09:10:10Z</time>
      </trkpt>
      <trkpt lat="50.190665" lon="6.750237">
        <time>2008-01-28T09:10:10Z</time>
      </trkpt>
      <trkpt lat="50.190376" lon="6.750470">
        <time>2008-01-28T09:10:10Z</time>
      </trkpt>
      <trkpt lat="50.189745" lon="6.750727">
        <time>2008-01-28T09:10:10Z</time>
      </trkpt>
      <trkpt lat="50.189411" lon="6.750903">
        <time>2008-01-28T09:10:10Z</time>
      </trkpt>
      <trkpt lat="50.189031" lon="6.751234">
        <time>2008-01-28T09:10:10Z</time>
      </trkpt>
      <trkpt lat="50.188778" lon="6.751440">
        <time>2008-01-28T09:10:10Z</time>
      </trkpt>
      <trkpt lat="50.188380" lon="6.751854">
        <ele>457.000000</ele>
        <time>2008-01-28T09:10:10Z</time>
      </trkpt>
      <trkpt lat="50.188380" lon="6.751854">
        <time>2008-01-28T09:10:10Z</time>
      </trkpt>
      <trkpt lat="50.188648" lon="6.752166">
        <time>2008-01-28T09:10:10Z</time>
      </trkpt>
      <trkpt lat="50.188880" lon="6.752337">
        <time>2008-01-28T09:10:10Z</time>
      </trkpt>
      <trkpt lat="50.189047" lon="6.752914">
        <time>2008-01-28T09:10:10Z</time>
      </trkpt>
      <trkpt lat="50.189153" lon="6.753238">
        <time>2008-01-28T09:10:10Z</time>
      </trkpt>
      <trkpt lat="50.189233" lon="6.753421">
        <time>2008-01-28T09:10:10Z</time>
      </trkpt>
      <trkpt lat="50.189384" lon="6.753704">
        <time>2008-01-28T09:10:10Z</time>
      </trkpt>
      <trkpt lat="50.189518" lon="6.753888">
        <time>2008-01-28T09:10:10Z</time>
      </trkpt>
      <trkpt lat="50.189838" lon="6.754453">
        <time>2008-01-28T09:10:10Z</time>
      </trkpt>
      <trkpt lat="50.190033" lon="6.754778">
        <time>2008-01-28T09:10:10Z</time>
      </trkpt>
      <trkpt lat="50.190364" lon="6.755063">
        <time>2008-01-28T09:10:10Z</time>
      </trkpt>
      <trkpt lat="50.190633" lon="6.755166">
        <time>2008-01-28T09:10:10Z</time>
      </trkpt>
      <trkpt lat="50.190750" lon="6.755224">
        <time>2008-01-28T09:10:10Z</time>
      </trkpt>
      <trkpt lat="50.190650" lon="6.755320">
        <time>2008-01-28T09:10:10Z</time>
      </trkpt>
      <trkpt lat="50.190696" lon="6.755195">
        <ele>531.000000</ele>
        <time>2008-01-28T09:10:10Z</time>
      </trkpt>
      <trkpt lat="50.190696" lon="6.755195">
        <time>2008-01-28T09:10:10Z</time>
      </trkpt>
      <trkpt lat="50.190732" lon="6.755139">
        <time>2008-01-28T09:10:10Z</time>
      </trkpt>
      <trkpt lat="50.190830" lon="6.755351">
        <time>2008-01-28T09:10:10Z</time>
      </trkpt>
      <trkpt lat="50.191046" lon="6.755298">
        <time>2008-01-28T09:10:10Z</time>
      </trkpt>
      <trkpt lat="50.191030" lon="6.754892">
        <time>2008-01-28T09:10:10Z</time>
      </trkpt>
      <trkpt lat="50.190934" lon="6.754526">
        <time>2008-01-28T09:10:10Z</time>
      </trkpt>
      <trkpt lat="50.190882" lon="6.754189">
        <time>2008-01-28T09:10:10Z</time>
      </trkpt>
      <trkpt lat="50.190884" lon="6.753853">
        <time>2008-01-28T09:10:10Z</time>
      </trkpt>
      <trkpt lat="50.190985" lon="6.753575">
        <time>2008-01-28T09:10:10Z</time>
      </trkpt>
      <trkpt lat="50.191184" lon="6.753480">
        <ele>553.000000</ele>
        <time>2008-01-28T09:10:10Z</time>
      </trkpt>
      <trkpt lat="50.191184" lon="6.753480">
        <time>2008-01-28T09:10:10Z</time>
      </trkpt>
      <trkpt lat="50.191019" lon="6.753827">
        <time>2008-01-28T09:10:10Z</time>
      </trkpt>
      <trkpt lat="50.191152" lon="6.754124">
        <time>2008-01-28T09:10:10Z</time>
      </trkpt>
      <trkpt lat="50.191267" lon="6.754532">
        <time>2008-01-28T09:10:10Z</time>
      </trkpt>
      <trkpt lat="50.191338" lon="6.754673">
        <ele>570.000000</ele>
        <time>2008-01-28T09:10:10Z</time>
      </trkpt>
      <trkpt lat="50.191338" lon="6.754673">
        <time>2008-01-28T09:10:10Z</time>
      </trkpt>
      <trkpt lat="50.191400" lon="6.754786">
        <time>2008-01-28T09:10:10Z</time>
      </trkpt>
      <trkpt lat="50.191551" lon="6.755068">
        <time>2008-01-28T09:10:10Z</time>
      </trkpt>
      <trkpt lat="50.191612" lon="6.755265">
        <time>2008-01-28T09:10:10Z</time>
      </trkpt>
      <trkpt lat="50.191664" lon="6.755546">
        <time>2008-01-28T09:10:10Z</time>
      </trkpt>
      <trkpt lat="50.191699" lon="6.755827">
        <time>2008-01-28T09:10:10Z</time>
      </trkpt>
      <trkpt lat="50.191733" lon="6.756135">
        <time>2008-01-28T09:10:10Z</time>
      </trkpt>
      <trkpt lat="50.191819" lon="6.756599">
        <time>2008-01-28T09:10:10Z</time>
      </trkpt>
      <trkpt lat="50.191855" lon="6.756683">
        <time>2008-01-28T09:10:10Z</time>
      </trkpt>
      <trkpt lat="50.191855" lon="6.756683">
        <time>2008-01-28T09:10:10Z</time>
      </trkpt>
      <trkpt lat="50.192143" lon="6.756604">
        <time>2008-01-28T09:10:10Z</time>
      </trkpt>
      <trkpt lat="50.192422" lon="6.756580">
        <time>2008-01-28T09:10:10Z</time>
      </trkpt>
      <trkpt lat="50.192951" lon="6.756743">
        <time>2008-01-28T09:10:10Z</time>
      </trkpt>
      <trkpt lat="50.193255" lon="6.757055">
        <time>2008-01-28T09:10:10Z</time>
      </trkpt>
      <trkpt lat="50.193477" lon="6.757409">
        <ele>584.000000</ele>
        <time>2008-01-28T09:10:10Z</time>
      </trkpt>
      <trkpt lat="50.193477" lon="6.757409">
        <time>2008-01-28T09:10:10Z</time>
      </trkpt>
      <trkpt lat="50.193320" lon="6.758065">
        <time>2008-01-28T09:10:10Z</time>
      </trkpt>
      <trkpt lat="50.193172" lon="6.758693">
        <time>2008-01-28T09:10:10Z</time>
      </trkpt>
      <trkpt lat="50.193169" lon="6.759211">
        <time>2008-01-28T09:10:10Z</time>
      </trkpt>
      <trkpt lat="50.193187" lon="6.759253">
        <time>2008-01-28T09:10:10Z</time>
      </trkpt>
      <trkpt lat="50.193187" lon="6.759253">
        <time>2008-01-28T09:10:10Z</time>
      </trkpt>
      <trkpt lat="50.193301" lon="6.759689">
        <time>2008-01-28T09:10:10Z</time>
      </trkpt>
      <trkpt lat="50.193431" lon="6.760321">
        <time>2008-01-28T09:10:10Z</time>
      </trkpt>
      <trkpt lat="50.193431" lon="6.760321">
        <time>2008-01-28T09:10:10Z</time>
      </trkpt>
      <trkpt lat="50.193250" lon="6.760571">
        <time>2008-01-28T09:10:10Z</time>
      </trkpt>
      <trkpt lat="50.193023" lon="6.760861">
        <time>2008-01-28T09:10:10Z</time>
      </trkpt>
      <trkpt lat="50.193023" lon="6.760861">
        <time>2008-01-28T09:10:10Z</time>
      </trkpt>
      <trkpt lat="50.192928" lon="6.761602">
        <time>2008-01-28T09:10:10Z</time>
      </trkpt>
      <trkpt lat="50.192888" lon="6.762343">
        <time>2008-01-28T09:10:10Z</time>
      </trkpt>
      <trkpt lat="50.192888" lon="6.762343">
        <time>2008-01-28T09:10:10Z</time>
      </trkpt>
      <trkpt lat="50.193063" lon="6.763102">
        <time>2008-01-28T09:10:10Z</time>
      </trkpt>
      <trkpt lat="50.193148" lon="6.763860">
        <ele>597.000000</ele>
        <time>2008-01-28T09:10:10Z</time>
      </trkpt>
      <trkpt lat="50.193148" lon="6.763860">
        <time>2008-01-28T09:10:10Z</time>
      </trkpt>
      <trkpt lat="50.192187" lon="6.764965">
        <time>2008-01-28T09:10:10Z</time>
      </trkpt>
      <trkpt lat="50.191761" lon="6.765504">
        <time>2008-01-28T09:10:10Z</time>
      </trkpt>
      <trkpt lat="50.191155" lon="6.766139">
        <time>2008-01-28T09:10:10Z</time>
      </trkpt>
      <trkpt lat="50.190546" lon="6.767151">
        <time>2008-01-28T09:10:10Z</time>
      </trkpt>
      <trkpt lat="50.190491" lon="6.767234">
        <time>2008-01-28T09:10:10Z</time>
      </trkpt>
      <trkpt lat="50.190491" lon="6.767234">
        <time>2008-01-28T09:10:10Z</time>
      </trkpt>
      <trkpt lat="50.189736" lon="6.768595">
        <time>2008-01-28T09:10:10Z</time>
      </trkpt>
      <trkpt lat="50.189645" lon="6.768803">
        <time>2008-01-28T09:10:10Z</time>
      </trkpt>
      <trkpt lat="50.189645" lon="6.768803">
        <time>2008-01-28T09:10:10Z</time>
      </trkpt>
      <trkpt lat="50.189480" lon="6.769262">
        <time>2008-01-28T09:10:10Z</time>
      </trkpt>
      <trkpt lat="50.189496" lon="6.770957">
        <time>2008-01-28T09:10:10Z</time>
      </trkpt>
      <trkpt lat="50.189635" lon="6.771660">
        <time>2008-01-28T09:10:10Z</time>
      </trkpt>
      <trkpt lat="50.189635" lon="6.771660">
        <time>2008-01-28T09:10:10Z</time>
      </trkpt>
      <trkpt lat="50.189711" lon="6.772403">
        <time>2008-01-28T09:10:10Z</time>
      </trkpt>
      <trkpt lat="50.189874" lon="6.773568">
        <time>2008-01-28T09:10:10Z</time>
      </trkpt>
      <trkpt lat="50.189961" lon="6.773947">
        <time>2008-01-28T09:10:10Z</time>
      </trkpt>
      <trkpt lat="50.189961" lon="6.773947">
        <time>2008-01-28T09:10:10Z</time>
      </trkpt>
      <trkpt lat="50.189975" lon="6.774592">
        <time>2008-01-28T09:10:10Z</time>
      </trkpt>
      <trkpt lat="50.189763" lon="6.775302">
        <time>2008-01-28T09:10:10Z</time>
      </trkpt>
      <trkpt lat="50.189052" lon="6.776789">
        <time>2008-01-28T09:10:10Z</time>
      </trkpt>
      <trkpt lat="50.188852" lon="6.777122">
        <time>2008-01-28T09:10:10Z</time>
      </trkpt>
      <trkpt lat="50.188554" lon="6.777383">
        <ele>560.000000</ele>
        <time>2008-01-28T09:10:10Z</time>
      </trkpt>
      <trkpt lat="50.188554" lon="6.777383">
        <time>2008-01-28T09:10:10Z</time>
      </trkpt>
      <trkpt lat="50.188978" lon="6.778524">
        <time>2008-01-28T09:10:10Z</time>
      </trkpt>
      <trkpt lat="50.188978" lon="6.778524">
        <time>2008-01-28T09:10:10Z</time>
      </trkpt>
      <trkpt lat="50.189438" lon="6.779568">
        <time>2008-01-28T09:10:10Z</time>
      </trkpt>
      <trkpt lat="50.189677" lon="6.780132">
        <time>2008-01-28T09:10:10Z</time>
      </trkpt>
      <trkpt lat="50.189677" lon="6.780132">
        <time>2008-01-28T09:10:10Z</time>
      </trkpt>
      <trkpt lat="50.190500" lon="6.782120">
        <time>2008-01-28T09:10:10Z</time>
      </trkpt>
      <trkpt lat="50.190499" lon="6.782162">
        <time>2008-01-28T09:10:10Z</time>
      </trkpt>
      <trkpt lat="50.190499" lon="6.782162">
        <time>2008-01-28T09:10:10Z</time>
      </trkpt>
      <trkpt lat="50.192062" lon="6.786389">
        <time>2008-01-28T09:10:10Z</time>
      </trkpt>
      <trkpt lat="50.192062" lon="6.786389">
        <time>2008-01-28T09:10:10Z</time>
      </trkpt>
      <trkpt lat="50.192144" lon="6.786306">
        <time>2008-01-28T09:10:10Z</time>
      </trkpt>
      <trkpt lat="50.192433" lon="6.786129">
        <time>2008-01-28T09:10:10Z</time>
      </trkpt>
      <trkpt lat="50.193110" lon="6.785706">
        <time>2008-01-28T09:10:10Z</time>
      </trkpt>
      <trkpt lat="50.193110" lon="6.785706">
        <time>2008-01-28T09:10:10Z</time>
      </trkpt>
      <trkpt lat="50.193667" lon="6.787045">
        <time>2008-01-28T09:10:10Z</time>
      </trkpt>
      <trkpt lat="50.193941" lon="6.787694">
        <time>2008-01-28T09:10:10Z</time>
      </trkpt>
      <trkpt lat="50.194055" lon="6.788158">
        <time>2008-01-28T09:10:10Z</time>
      </trkpt>
      <trkpt lat="50.194225" lon="6.789547">
        <time>2008-01-28T09:10:10Z</time>
      </trkpt>
      <trkpt lat="50.194225" lon="6.789547">
        <time>2008-01-28T09:10:10Z</time>
      </trkpt>
      <trkpt lat="50.194761" lon="6.790060">
        <time>2008-01-28T09:10:10Z</time>
      </trkpt>
      <trkpt lat="50.194949" lon="6.790231">
        <time>2008-01-28T09:10:10Z</time>
      </trkpt>
      <trkpt lat="50.194949" lon="6.790231">
        <time>2008-01-28T09:10:10Z</time>
      </trkpt>
      <trkpt lat="50.195181" lon="6.790417">
        <time>2008-01-28T09:10:10Z</time>
      </trkpt>
      <trkpt lat="50.195701" lon="6.790678">
        <ele>466.000000</ele>
        <time>2008-01-28T09:10:10Z</time>
      </trkpt>
      <trkpt lat="50.195701" lon="6.790678">
        <time>2008-01-28T09:10:10Z</time>
      </trkpt>
      <trkpt lat="50.195392" lon="6.789860">
        <time>2008-01-28T09:10:10Z</time>
      </trkpt>
      <trkpt lat="50.195245" lon="6.788976">
        <time>2008-01-28T09:10:10Z</time>
      </trkpt>
      <trkpt lat="50.195125" lon="6.788119">
        <time>2008-01-28T09:10:10Z</time>
      </trkpt>
      <trkpt lat="50.195214" lon="6.786931">
        <time>2008-01-28T09:10:10Z</time>
      </trkpt>
      <trkpt lat="50.195214" lon="6.785572">
        <time>2008-01-28T09:10:10Z</time>
      </trkpt>
      <trkpt lat="50.195306" lon="6.785266">
        <time>2008-01-28T09:10:10Z</time>
      </trkpt>
      <trkpt lat="50.195306" lon="6.785266">
        <time>2008-01-28T09:10:10Z</time>
      </trkpt>
      <trkpt lat="50.195677" lon="6.786266">
        <time>2008-01-28T09:10:10Z</time>
      </trkpt>
      <trkpt lat="50.195778" lon="6.787346">
        <time>2008-01-28T09:10:10Z</time>
      </trkpt>
      <trkpt lat="50.195765" lon="6.787948">
        <time>2008-01-28T09:10:10Z</time>
      </trkpt>
      <trkpt lat="50.195929" lon="6.788861">
        <time>2008-01-28T09:10:10Z</time>
      </trkpt>
      <trkpt lat="50.196307" lon="6.790198">
        <time>2008-01-28T09:10:10Z</time>
      </trkpt>
      <trkpt lat="50.197163" lon="6.792453">
        <time>2008-01-28T09:10:10Z</time>
      </trkpt>
      <trkpt lat="50.197690" lon="6.792994">
        <time>2008-01-28T09:10:10Z</time>
      </trkpt>
      <trkpt lat="50.198651" lon="6.794396">
        <time>2008-01-28T09:10:10Z</time>
      </trkpt>
      <trkpt lat="50.198973" lon="6.794766">
        <time>2008-01-28T09:10:10Z</time>
      </trkpt>
      <trkpt lat="50.198973" lon="6.794766">
        <time>2008-01-28T09:10:10Z</time>
      </trkpt>
      <trkpt lat="50.199106" lon="6.794964">
        <time>2008-01-28T09:10:10Z</time>
      </trkpt>
      <trkpt lat="50.199977" lon="6.796491">
        <time>2008-01-28T09:10:10Z</time>
      </trkpt>
      <trkpt lat="50.200031" lon="6.796492">
        <time>2008-01-28T09:10:10Z</time>
      </trkpt>
      <trkpt lat="50.200031" lon="6.796492">
        <time>2008-01-28T09:10:10Z</time>
      </trkpt>
      <trkpt lat="50.200741" lon="6.796448">
        <time>2008-01-28T09:10:10Z</time>
      </trkpt>
      <trkpt lat="50.200741" lon="6.796448">
        <time>2008-01-28T09:10:10Z</time>
      </trkpt>
      <trkpt lat="50.201671" lon="6.794558">
        <time>2008-01-28T09:10:10Z</time>
      </trkpt>
      <trkpt lat="50.201671" lon="6.794558">
        <time>2008-01-28T09:10:10Z</time>
      </trkpt>
      <trkpt lat="50.202663" lon="6.795387">
        <ele>418.000000</ele>
        <time>2008-01-28T09:10:10Z</time>
      </trkpt>
      <trkpt lat="50.202663" lon="6.795387">
        <time>2008-01-28T09:10:10Z</time>
      </trkpt>
      <trkpt lat="50.202334" lon="6.796194">
        <time>2008-01-28T09:10:10Z</time>
      </trkpt>
      <trkpt lat="50.202334" lon="6.796194">
        <time>2008-01-28T09:10:10Z</time>
      </trkpt>
      <trkpt lat="50.202476" lon="6.796449">
        <time>2008-01-28T09:10:10Z</time>
      </trkpt>
      <trkpt lat="50.202454" lon="6.797065">
        <time>2008-01-28T09:10:10Z</time>
      </trkpt>
      <trkpt lat="50.202454" lon="6.797065">
        <time>2008-01-28T09:10:10Z</time>
      </trkpt>
      <trkpt lat="50.202397" lon="6.798800">
        <time>2008-01-28T09:10:10Z</time>
      </trkpt>
      <trkpt lat="50.201851" lon="6.799856">
        <time>2008-01-28T09:10:10Z</time>
      </trkpt>
      <trkpt lat="50.201478" lon="6.800438">
        <time>2008-01-28T09:10:10Z</time>
      </trkpt>
      <trkpt lat="50.201478" lon="6.800438">
        <time>2008-01-28T09:10:10Z</time>
      </trkpt>
      <trkpt lat="50.200987" lon="6.801284">
        <time>2008-01-28T09:10:10Z</time>
      </trkpt>
      <trkpt lat="50.200588" lon="6.801712">
        <ele>401.000000</ele>
        <time>2008-01-28T09:10:10Z</time>
      </trkpt>
      <trkpt lat="50.200588" lon="6.801712">
        <time>2008-01-28T09:10:10Z</time>
      </trkpt>
      <trkpt lat="50.200711" lon="6.802162">
        <time>2008-01-28T09:10:10Z</time>
      </trkpt>
      <trkpt lat="50.200743" lon="6.802667">
        <time>2008-01-28T09:10:10Z</time>
      </trkpt>
      <trkpt lat="50.200391" lon="6.802941">
        <time>2008-01-28T09:10:10Z</time>
      </trkpt>
      <trkpt lat="50.200182" lon="6.803175">
        <time>2008-01-28T09:10:10Z</time>
      </trkpt>
      <trkpt lat="50.200028" lon="6.803425">
        <time>2008-01-28T09:10:10Z</time>
      </trkpt>
      <trkpt lat="50.200028" lon="6.803425">
        <time>2008-01-28T09:10:10Z</time>
      </trkpt>
      <trkpt lat="50.200008" lon="6.803747">
        <time>2008-01-28T09:10:10Z</time>
      </trkpt>
      <trkpt lat="50.200008" lon="6.803747">
        <time>2008-01-28T09:10:10Z</time>
      </trkpt>
      <trkpt lat="50.199898" lon="6.804039">
        <time>2008-01-28T09:10:10Z</time>
      </trkpt>
      <trkpt lat="50.199905" lon="6.804319">
        <time>2008-01-28T09:10:10Z</time>
      </trkpt>
      <trkpt lat="50.200225" lon="6.804801">
        <time>2008-01-28T09:10:10Z</time>
      </trkpt>
      <trkpt lat="50.200744" lon="6.805216">
        <time>2008-01-28T09:10:10Z</time>
      </trkpt>
      <trkpt lat="50.201305" lon="6.806010">
        <time>2008-01-28T09:10:10Z</time>
      </trkpt>
      <trkpt lat="50.201305" lon="6.806010">
        <time>2008-01-28T09:10:10Z</time>
      </trkpt>
      <trkpt lat="50.201187" lon="6.806106">
        <time>2008-01-28T09:10:10Z</time>
      </trkpt>
      <trkpt lat="50.201338" lon="6.806346">
        <time>2008-01-28T09:10:10Z</time>
      </trkpt>
      <trkpt lat="50.201149" lon="6.806399">
        <time>2008-01-28T09:10:10Z</time>
      </trkpt>
      <trkpt lat="50.201291" lon="6.806682">
        <time>2008-01-28T09:10:10Z</time>
      </trkpt>
      <trkpt lat="50.201075" lon="6.806720">
        <time>2008-01-28T09:10:10Z</time>
      </trkpt>
      <trkpt lat="50.201100" lon="6.807015">
        <time>2008-01-28T09:10:10Z</time>
      </trkpt>
      <trkpt lat="50.201026" lon="6.807280">
        <time>2008-01-28T09:10:10Z</time>
      </trkpt>
      <trkpt lat="50.200972" lon="6.807335">
        <time>2008-01-28T09:10:10Z</time>
      </trkpt>
      <trkpt lat="50.200972" lon="6.807335">
        <time>2008-01-28T09:10:10Z</time>
      </trkpt>
      <trkpt lat="50.200691" lon="6.807568">
        <time>2008-01-28T09:10:10Z</time>
      </trkpt>
      <trkpt lat="50.200459" lon="6.807340">
        <time>2008-01-28T09:10:10Z</time>
      </trkpt>
      <trkpt lat="50.200208" lon="6.807210">
        <time>2008-01-28T09:10:10Z</time>
      </trkpt>
      <trkpt lat="50.200053" lon="6.807613">
        <time>2008-01-28T09:10:10Z</time>
      </trkpt>
      <trkpt lat="50.199950" lon="6.808186">
        <time>2008-01-28T09:10:10Z</time>
      </trkpt>
      <trkpt lat="50.200219" lon="6.809493">
        <time>2008-01-28T09:10:10Z</time>
      </trkpt>
      <trkpt lat="50.200143" lon="6.810136">
        <time>2008-01-28T09:10:10Z</time>
      </trkpt>
      <trkpt lat="50.200143" lon="6.810136">
        <time>2008-01-28T09:10:10Z</time>
      </trkpt>
      <trkpt lat="50.199952" lon="6.811701">
        <time>2008-01-28T09:10:10Z</time>
      </trkpt>
      <trkpt lat="50.199829" lon="6.812582">
        <time>2008-01-28T09:10:10Z</time>
      </trkpt>
      <trkpt lat="50.199841" lon="6.813422">
        <time>2008-01-28T09:10:10Z</time>
      </trkpt>
      <trkpt lat="50.199841" lon="6.813422">
        <time>2008-01-28T09:10:10Z</time>
      </trkpt>
      <trkpt lat="50.199734" lon="6.813406">
        <time>2008-01-28T09:10:10Z</time>
      </trkpt>
      <trkpt lat="50.199653" lon="6.813349">
        <time>2008-01-28T09:10:10Z</time>
      </trkpt>
      <trkpt lat="50.199653" lon="6.813349">
        <time>2008-01-28T09:10:10Z</time>
      </trkpt>
      <trkpt lat="50.199580" lon="6.813530">
        <time>2008-01-28T09:10:10Z</time>
      </trkpt>
      <trkpt lat="50.199524" lon="6.813795">
        <time>2008-01-28T09:10:10Z</time>
      </trkpt>
      <trkpt lat="50.199602" lon="6.814216">
        <time>2008-01-28T09:10:10Z</time>
      </trkpt>
      <trkpt lat="50.199491" lon="6.814691">
        <time>2008-01-28T09:10:10Z</time>
      </trkpt>
      <trkpt lat="50.199491" lon="6.814691">
        <time>2008-01-28T09:10:10Z</time>
      </trkpt>
      <trkpt lat="50.199383" lon="6.814661">
        <time>2008-01-28T09:10:10Z</time>
      </trkpt>
      <trkpt lat="50.199194" lon="6.814756">
        <time>2008-01-28T09:10:10Z</time>
      </trkpt>
      <trkpt lat="50.199112" lon="6.814852">
        <time>2008-01-28T09:10:10Z</time>
      </trkpt>
      <trkpt lat="50.199112" lon="6.814852">
        <time>2008-01-28T09:10:10Z</time>
      </trkpt>
      <trkpt lat="50.199114" lon="6.814530">
        <time>2008-01-28T09:10:10Z</time>
      </trkpt>
      <trkpt lat="50.198880" lon="6.814554">
        <time>2008-01-28T09:10:10Z</time>
      </trkpt>
      <trkpt lat="50.198983" lon="6.814080">
        <time>2008-01-28T09:10:10Z</time>
      </trkpt>
      <trkpt lat="50.198658" lon="6.814270">
        <time>2008-01-28T09:10:10Z</time>
      </trkpt>
      <trkpt lat="50.198725" lon="6.813697">
        <time>2008-01-28T09:10:10Z</time>
      </trkpt>
      <trkpt lat="50.198427" lon="6.813888">
        <time>2008-01-28T09:10:10Z</time>
      </trkpt>
      <trkpt lat="50.198412" lon="6.813440">
        <time>2008-01-28T09:10:10Z</time>
      </trkpt>
      <trkpt lat="50.198412" lon="6.813440">
        <time>2008-01-28T09:10:10Z</time>
      </trkpt>
      <trkpt lat="50.197680" lon="6.814030">
        <time>2008-01-28T09:10:10Z</time>
      </trkpt>
      <trkpt lat="50.197350" lon="6.814864">
        <ele>454.000000</ele>
        <time>2008-01-28T09:10:10Z</time>
      </trkpt>
      <trkpt lat="50.197350" lon="6.814864">
        <time>2008-01-28T09:10:10Z</time>
      </trkpt>
      <trkpt lat="50.197532" lon="6.815806">
        <time>2008-01-28T09:10:10Z</time>
      </trkpt>
      <trkpt lat="50.197551" lon="6.816955">
        <time>2008-01-28T09:10:10Z</time>
      </trkpt>
      <trkpt lat="50.197530" lon="6.817417">
        <time>2008-01-28T09:10:10Z</time>
      </trkpt>
      <trkpt lat="50.197530" lon="6.817417">
        <time>2008-01-28T09:10:10Z</time>
      </trkpt>
      <trkpt lat="50.197550" lon="6.818411">
        <time>2008-01-28T09:10:10Z</time>
      </trkpt>
      <trkpt lat="50.197754" lon="6.818793">
        <time>2008-01-28T09:10:10Z</time>
      </trkpt>
      <trkpt lat="50.197655" lon="6.818833">
        <time>2008-01-28T09:10:10Z</time>
      </trkpt>
      <trkpt lat="50.197655" lon="6.818833">
        <time>2008-01-28T09:10:10Z</time>
      </trkpt>
      <trkpt lat="50.197573" lon="6.818888">
        <time>2008-01-28T09:10:10Z</time>
      </trkpt>
      <trkpt lat="50.197404" lon="6.818675">
        <time>2008-01-28T09:10:10Z</time>
      </trkpt>
      <trkpt lat="50.197110" lon="6.818334">
        <time>2008-01-28T09:10:10Z</time>
      </trkpt>
      <trkpt lat="50.197110" lon="6.818334">
        <time>2008-01-28T09:10:10Z</time>
      </trkpt>
      <trkpt lat="50.196966" lon="6.818303">
        <time>2008-01-28T09:10:10Z</time>
      </trkpt>
      <trkpt lat="50.196795" lon="6.818384">
        <time>2008-01-28T09:10:10Z</time>
      </trkpt>
      <trkpt lat="50.196596" lon="6.818563">
        <time>2008-01-28T09:10:10Z</time>
      </trkpt>
      <trkpt lat="50.196460" lon="6.818687">
        <time>2008-01-28T09:10:10Z</time>
      </trkpt>
      <trkpt lat="50.196460" lon="6.818687">
        <time>2008-01-28T09:10:10Z</time>
      </trkpt>
      <trkpt lat="50.196183" lon="6.818402">
        <time>2008-01-28T09:10:10Z</time>
      </trkpt>
      <trkpt lat="50.195667" lon="6.817707">
        <time>2008-01-28T09:10:10Z</time>
      </trkpt>
      <trkpt lat="50.195399" lon="6.817464">
        <time>2008-01-28T09:10:10Z</time>
      </trkpt>
      <trkpt lat="50.195399" lon="6.817464">
        <time>2008-01-28T09:10:10Z</time>
      </trkpt>
      <trkpt lat="50.195078" lon="6.817066">
        <time>2008-01-28T09:10:10Z</time>
      </trkpt>
      <trkpt lat="50.194525" lon="6.816483">
        <time>2008-01-28T09:10:10Z</time>
      </trkpt>
      <trkpt lat="50.194220" lon="6.816394">
        <time>2008-01-28T09:10:10Z</time>
      </trkpt>
      <trkpt lat="50.193716" lon="6.816399">
        <time>2008-01-28T09:10:10Z</time>
      </trkpt>
      <trkpt lat="50.193716" lon="6.816399">
        <time>2008-01-28T09:10:10Z</time>
      </trkpt>
      <trkpt lat="50.193599" lon="6.816411">
        <time>2008-01-28T09:10:10Z</time>
      </trkpt>
      <trkpt lat="50.193159" lon="6.816404">
        <time>2008-01-28T09:10:10Z</time>
      </trkpt>
      <trkpt lat="50.192456" lon="6.816532">
        <ele>454.000000</ele>
        <time>2008-01-28T09:10:10Z</time>
      </trkpt>
      <trkpt lat="50.192456" lon="6.816532">
        <time>2008-01-28T09:10:10Z</time>
      </trkpt>
      <trkpt lat="50.192706" lon="6.816886">
        <time>2008-01-28T09:10:10Z</time>
      </trkpt>
      <trkpt lat="50.193118" lon="6.817089">
        <time>2008-01-28T09:10:10Z</time>
      </trkpt>
      <trkpt lat="50.193187" lon="6.817454">
        <time>2008-01-28T09:10:10Z</time>
      </trkpt>
      <trkpt lat="50.193047" lon="6.818166">
        <time>2008-01-28T09:10:10Z</time>
      </trkpt>
      <trkpt lat="50.193271" lon="6.819584">
        <time>2008-01-28T09:10:10Z</time>
      </trkpt>
      <trkpt lat="50.193397" lon="6.820805">
        <time>2008-01-28T09:10:10Z</time>
      </trkpt>
      <trkpt lat="50.193397" lon="6.820805">
        <time>2008-01-28T09:10:10Z</time>
      </trkpt>
      <trkpt lat="50.193851" lon="6.821513">
        <time>2008-01-28T09:10:10Z</time>
      </trkpt>
      <trkpt lat="50.194074" lon="6.823057">
        <time>2008-01-28T09:10:10Z</time>
      </trkpt>
      <trkpt lat="50.194074" lon="6.823057">
        <time>2008-01-28T09:10:10Z</time>
      </trkpt>
      <trkpt lat="50.194260" lon="6.823369">
        <time>2008-01-28T09:10:10Z</time>
      </trkpt>
      <trkpt lat="50.194439" lon="6.823498">
        <time>2008-01-28T09:10:10Z</time>
      </trkpt>
      <trkpt lat="50.194439" lon="6.823498">
        <time>2008-01-28T09:10:10Z</time>
      </trkpt>
      <trkpt lat="50.194749" lon="6.824147">
        <time>2008-01-28T09:10:10Z</time>
      </trkpt>
      <trkpt lat="50.194729" lon="6.824497">
        <time>2008-01-28T09:10:10Z</time>
      </trkpt>
      <trkpt lat="50.194729" lon="6.824497">
        <time>2008-01-28T09:10:10Z</time>
      </trkpt>
      <trkpt lat="50.194610" lon="6.824761">
        <time>2008-01-28T09:10:10Z</time>
      </trkpt>
      <trkpt lat="50.193813" lon="6.825546">
        <time>2008-01-28T09:10:10Z</time>
      </trkpt>
      <trkpt lat="50.193451" lon="6.825946">
        <time>2008-01-28T09:10:10Z</time>
      </trkpt>
      <trkpt lat="50.193451" lon="6.825946">
        <time>2008-01-28T09:10:10Z</time>
      </trkpt>
      <trkpt lat="50.193574" lon="6.826284">
        <time>2008-01-28T09:10:10Z</time>
      </trkpt>
      <trkpt lat="50.193653" lon="6.826551">
        <ele>467.000000</ele>
        <time>2008-01-28T09:10:10Z</time>
      </trkpt>
      <trkpt lat="50.193653" lon="6.826551">
        <time>2008-01-28T09:10:10Z</time>
      </trkpt>
      <trkpt lat="50.193925" lon="6.826332">
        <time>2008-01-28T09:10:10Z</time>
      </trkpt>
      <trkpt lat="50.194214" lon="6.826127">
        <time>2008-01-28T09:10:10Z</time>
      </trkpt>
      <trkpt lat="50.194604" lon="6.825657">
        <time>2008-01-28T09:10:10Z</time>
      </trkpt>
      <trkpt lat="50.194604" lon="6.825657">
        <time>2008-01-28T09:10:10Z</time>
      </trkpt>
      <trkpt lat="50.195051" lon="6.826001">
        <time>2008-01-28T09:10:10Z</time>
      </trkpt>
      <trkpt lat="50.195193" lon="6.826270">
        <time>2008-01-28T09:10:10Z</time>
      </trkpt>
      <trkpt lat="50.195193" lon="6.826270">
        <time>2008-01-28T09:10:10Z</time>
      </trkpt>
      <trkpt lat="50.195317" lon="6.826496">
        <time>2008-01-28T09:10:10Z</time>
      </trkpt>
      <trkpt lat="50.195613" lon="6.826585">
        <time>2008-01-28T09:10:10Z</time>
      </trkpt>
      <trkpt lat="50.196055" lon="6.826326">
        <time>2008-01-28T09:10:10Z</time>
      </trkpt>
      <trkpt lat="50.196804" lon="6.825947">
        <time>2008-01-28T09:10:10Z</time>
      </trkpt>
      <trkpt lat="50.196804" lon="6.825947">
        <time>2008-01-28T09:10:10Z</time>
      </trkpt>
      <trkpt lat="50.196965" lon="6.826104">
        <time>2008-01-28T09:10:10Z</time>
      </trkpt>
      <trkpt lat="50.197151" lon="6.826513">
        <time>2008-01-28T09:10:10Z</time>
      </trkpt>
      <trkpt lat="50.197151" lon="6.826513">
        <time>2008-01-28T09:10:10Z</time>
      </trkpt>
      <trkpt lat="50.197220" lon="6.826865">
        <time>2008-01-28T09:10:10Z</time>
      </trkpt>
      <trkpt lat="50.197360" lon="6.827427">
        <time>2008-01-28T09:10:10Z</time>
      </trkpt>
      <trkpt lat="50.197360" lon="6.827427">
        <time>2008-01-28T09:10:10Z</time>
      </trkpt>
      <trkpt lat="50.197492" lon="6.827808">
        <time>2008-01-28T09:10:10Z</time>
      </trkpt>
      <trkpt lat="50.197893" lon="6.828375">
        <time>2008-01-28T09:10:10Z</time>
      </trkpt>
      <trkpt lat="50.197893" lon="6.828375">
        <time>2008-01-28T09:10:10Z</time>
      </trkpt>
      <trkpt lat="50.197946" lon="6.828460">
        <time>2008-01-28T09:10:10Z</time>
      </trkpt>
      <trkpt lat="50.198417" lon="6.829196">
        <ele>433.000000</ele>
        <time>2008-01-28T09:10:10Z</time>
      </trkpt>
      <trkpt lat="50.198417" lon="6.829196">
        <time>2008-01-28T09:10:10Z</time>
      </trkpt>
      <trkpt lat="50.198046" lon="6.829568">
        <time>2008-01-28T09:10:10Z</time>
      </trkpt>
      <trkpt lat="50.197901" lon="6.829692">
        <ele>435.000000</ele>
        <time>2008-01-28T09:10:10Z</time>
      </trkpt>
    </trkseg>
  </trk>

</gpx>
